Location: *
(6.0000°S, 32.3997°W)
Time: 16:52:58
(UTC+00:00)

Cosmos 2315 Rocket - Pass Details

Date: 01 April 2020
Orbit: 965 x 1003 km, 82.9° (Epoch: 26 May)

Event Time Altitude Azimuth Distance (km) Brightness Sun altitude
Rises 20:44:27 0° 174° (S) 3,669 6.9 -8.3°
Reaches altitude 10° 20:47:01 10° 169° (S) 2,723 6.2 -8.9°
Maximum altitude 20:53:04 53° 94° (E) 1,191 4.1 -10.4°
Drops below altitude 10° 20:59:09 10° 18° (NNE) 2,732 6.2 -11.9°
Sets 21:01:43 0° 14° (NNE) 3,682 6.9 -12.5°
